VK2RZ Weather Reports


time (UTC)temp
C
wind
direction
speed
KPH
gust
KPH
rain 1hr
cm
rain 24hr
cm
rain mn
cm
humidity
%
barometer
mb
20260509090120 16 0 0.0 0.0 0.00 0.00 0.00 7 1025.6
20260509085120 16 0 0.0 0.0 0.00 0.00 0.00 7 1025.4
20260509084120 15 0 0.0 0.0 0.00 0.00 0.00 7 1025.3
20260509083120 16 0 0.0 0.0 0.00 0.00 0.00 7 1025.2
20260509082120 15 0 0.0 0.0 0.00 0.00 0.00 7 1025.1
20260509081120 16 0 0.0 0.0 0.00 0.00 0.00 7 1025.0
20260509080120 16 0 0.0 0.0 0.00 0.00 0.00 7 1024.8
20260509075120 15 0 0.0 0.0 0.00 0.00 0.00 7 1024.8
20260509074120 16 0 0.0 0.0 0.00 0.00 0.00 7 1024.7
20260509073120 16 0 0.0 0.0 0.00 0.00 0.00 7 1024.6
20260509072120 16 0 0.0 0.0 0.00 0.00 0.00 7 1024.6
20260509071120 16 0 0.0 1.6 0.00 0.00 0.00 7 1024.5
20260509070120 16 0 0.0 0.0 0.00 0.00 0.00 7 1024.4
20260509065120 17 70 1.6 4.8 0.00 0.00 0.00 6 1024.3
20260509064120 17 89 3.2 3.2 0.00 0.00 0.00 6 1024.1
20260509063120 17 0 0.0 4.8 0.00 0.00 0.00 6 1024.1
20260509062120 17 0 0.0 12.9 0.00 0.00 0.00 6 1024.0
20260509061120 17 74 1.6 11.3 0.00 0.00 0.00 6 1023.9
20260509060120 17 135 6.4 6.4 0.00 0.00 0.00 6 1023.7
20260509055120 17 143 1.6 9.7 0.00 0.00 0.00 6 1023.7
20260509054120 17 117 4.8 12.9 0.00 0.00 0.00 6 1023.7
20260509053119 18 149 1.6 4.8 0.00 0.00 0.00 6 1023.6
20260509052118 18 111 4.8 12.9 0.00 0.00 0.00 6 1023.6
20260509051118 18 114 12.9 16.1 0.00 0.00 0.00 6 1023.5
20260509050118 18 135 3.2 12.9 0.00 0.00 0.00 6 1023.5
20260509045118 18 90 4.8 14.5 0.00 0.00 0.00 6 1023.5
20260509044118 18 167 6.4 14.5 0.00 0.00 0.00 6 1023.4
20260509043118 18 106 6.4 9.7 0.00 0.00 0.00 6 1023.4
20260509042118 18 164 3.2 8.0 0.00 0.00 0.00 6 1023.3
20260509041118 18 175 4.8 8.0 0.00 0.00 0.00 6 1023.2
20260509040117 19 145 6.4 8.0 0.00 0.00 0.00 6 1023.3
20260509035117 19 133 12.9 19.3 0.00 0.00 0.00 5 1023.3
20260509034117 19 137 8.0 12.9 0.00 0.00 0.00 5 1023.2
20260509033117 20 0 0.0 4.8 0.00 0.00 0.00 5 1023.3
20260509032117 19 157 3.2 8.0 0.00 0.00 0.00 5 1023.4
20260509031117 19 0 0.0 3.2 0.00 0.00 0.00 5 1023.4
20260509030117 20 123 1.6 1.6 0.00 0.00 0.00 5 1023.5
20260509025117 19 0 0.0 6.4 0.00 0.00 0.00 5 1023.6
20260509024117 19 0 0.0 4.8 0.00 0.00 0.00 5 1023.7
20260509023117 20 230 6.4 8.0 0.00 0.00 0.00 5 1023.9
20260509022117 19 141 3.2 8.0 0.00 0.00 0.00 5 1024.0
20260509021117 19 230 1.6 9.7 0.00 0.00 0.00 5 1024.1
20260509020117 20 210 1.6 6.4 0.00 0.00 0.00 5 1024.2
20260509015117 18 175 1.6 9.7 0.00 0.00 0.00 5 1024.4
20260509014117 19 185 3.2 8.0 0.00 0.00 0.00 5 1024.5
20260509013117 19 216 3.2 8.0 0.00 0.00 0.00 5 1024.5
20260509012117 18 195 1.6 6.4 0.00 0.00 0.00 5 1024.6
20260509011117 18 237 3.2 8.0 0.00 0.00 0.00 5 1024.6
20260509010117 18 216 3.2 11.3 0.00 0.00 0.00 5 1024.5
20260509005117 17 239 6.4 11.3 0.00 0.00 0.00 5 1024.6
20260509004117 18 233 3.2 11.3 0.00 0.00 0.00 5 1024.6
20260509003117 17 238 3.2 14.5 0.00 0.00 0.00 5 1024.6
20260509002117 17 198 1.6 14.5 0.00 0.00 0.00 6 1024.7
20260509001150 17 231 11.3 11.3 0.00 0.00 0.00 6 1024.8
20260509001117 17 231 11.3 11.3 0.00 0.00 0.00 6 1024.8
20260509000117 16 233 4.8 8.0 0.00 0.00 0.00 6 1024.7
20260508235117 16 262 14.5 14.5 0.00 0.00 0.00 6 1024.8
20260508234117 16 216 14.5 19.3 0.00 0.00 0.00 6 1025.0
20260508233117 16 219 6.4 17.7 0.00 0.00 0.00 6 1024.9
20260508232117 15 248 14.5 16.1 0.00 0.00 0.00 6 1024.8
20260508231117 15 189 4.8 22.5 0.00 0.00 0.00 6 1024.8
20260508230117 15 245 19.3 22.5 0.00 0.00 0.00 6 1024.8
20260508225117 15 245 17.7 20.9 0.00 0.00 0.00 6 1024.8
20260508224117 14 249 8.0 25.7 0.00 0.00 0.00 6 1024.7
20260508223117 14 250 8.0 20.9 0.00 0.00 0.00 6 1024.8
20260508222117 13 256 12.9 19.3 0.00 0.00 0.00 7 1024.7
20260508221117 13 249 17.7 22.5 0.00 0.00 0.00 7 1024.6
20260508220117 13 249 14.5 22.5 0.00 0.00 0.00 7 1024.5
20260508215116 13 231 20.9 20.9 0.00 0.00 0.00 7 1024.5
20260508214116 13 266 11.3 16.1 0.00 0.00 0.00 7 1024.3
20260508213116 13 236 14.5 25.7 0.00 0.00 0.00 7 1024.3
20260508212116 12 250 19.3 19.3 0.00 0.00 0.00 7 1024.1
20260508211116 12 247 6.4 12.9 0.00 0.00 0.00 7 1023.9
20260508210116 12 235 6.4 17.7 0.00 0.00 0.00 7 1023.8
20260508205116 12 256 6.4 12.9 0.00 0.00 0.00 7 1023.6
20260508204116 12 237 8.0 12.9 0.00 0.00 0.00 7 1023.6
20260508203116 13 259 11.3 22.5 0.00 0.00 0.00 7 1023.5
20260508202116 13 258 14.5 17.7 0.00 0.00 0.00 7 1023.3
20260508201116 13 237 16.1 22.5 0.00 0.00 0.00 7 1023.2
20260508200116 13 264 16.1 22.5 0.00 0.00 0.00 7 1023.1
20260508195116 13 238 6.4 17.7 0.00 0.00 0.00 7 1023.0
20260508194116 13 227 16.1 19.3 0.00 0.00 0.00 7 1022.9
20260508193116 13 241 17.7 17.7 0.00 0.00 0.00 7 1022.6
20260508192116 13 235 8.0 12.9 0.00 0.00 0.00 7 1022.6
20260508191116 13 282 6.4 16.1 0.00 0.00 0.00 7 1022.5
20260508190116 13 239 4.8 17.7 0.00 0.00 0.00 7 1022.5
20260508185116 13 245 9.7 14.5 0.00 0.00 0.00 7 1022.5
20260508184116 13 235 3.2 16.1 0.00 0.00 0.00 7 1022.4
20260508183116 13 255 17.7 17.7 0.00 0.00 0.00 7 1022.4
20260508182116 13 241 14.5 17.7 0.00 0.00 0.00 7 1022.3
20260508181116 13 252 12.9 14.5 0.00 0.00 0.00 7 1022.2
20260508180116 13 254 12.9 14.5 0.00 0.00 0.00 6 1022.0
20260508175116 13 244 8.0 14.5 0.00 0.00 0.00 6 1022.0
20260508174116 13 248 9.7 16.1 0.00 0.00 0.00 6 1022.0
20260508173116 13 251 9.7 17.7 0.00 0.00 0.00 6 1022.0
20260508172116 13 252 16.1 19.3 0.00 0.00 0.00 6 1021.9
20260508171116 13 251 14.5 14.5 0.00 0.00 0.00 6 1022.0
20260508170116 13 245 3.2 12.9 0.00 0.00 0.00 6 1022.1
20260508165116 13 251 4.8 12.9 0.00 0.00 0.00 6 1022.0
20260508164116 13 239 1.6 14.5 0.00 0.00 0.00 6 1022.1
20260508163116 13 238 6.4 19.3 0.00 0.00 0.00 6 1022.1
20260508162116 13 245 8.0 14.5 0.00 0.00 0.00 7 1022.1
20260508161116 12 247 12.9 17.7 0.00 0.00 0.00 7 1022.1
20260508160115 13 228 16.1 16.1 0.00 0.00 0.00 6 1022.0
20260508155115 13 243 6.4 12.9 0.00 0.00 0.00 6 1022.0
20260508154115 13 254 11.3 16.1 0.00 0.00 0.00 6 1022.0
20260508153115 13 217 6.4 16.1 0.00 0.00 0.00 6 1022.1
20260508152115 13 229 3.2 20.9 0.00 0.00 0.00 6 1022.0
20260508151115 13 249 6.4 11.3 0.00 0.00 0.00 6 1022.0
20260508150114 13 247 4.8 20.9 0.00 0.00 0.00 6 1022.0
20260508145114 13 252 14.5 16.1 0.00 0.00 0.00 6 1022.0
20260508144114 13 237 9.7 19.3 0.00 0.00 0.00 6 1022.0
20260508143114 13 249 12.9 17.7 0.00 0.00 0.00 6 1022.0
20260508142114 13 214 8.0 17.7 0.00 0.00 0.00 6 1022.0
20260508141114 13 244 17.7 20.9 0.00 0.00 0.00 6 1022.1
20260508140113 13 235 16.1 16.1 0.00 0.00 0.00 6 1022.0
20260508135113 13 240 11.3 19.3 0.00 0.00 0.00 6 1021.9
20260508134113 13 251 12.9 16.1 0.00 0.00 0.00 6 1021.8
20260508133113 13 254 12.9 19.3 0.00 0.00 0.00 6 1021.8
20260508132113 14 237 4.8 19.3 0.00 0.00 0.00 6 1021.9
20260508131113 14 221 16.1 20.9 0.00 0.00 0.00 6 1021.9
20260508130113 14 239 6.4 14.5 0.00 0.00 0.00 6 1021.8
20260508125112 14 237 11.3 14.5 0.00 0.00 0.00 6 1021.8
20260508124112 14 254 4.8 17.7 0.00 0.00 0.00 6 1021.7
20260508123111 14 239 8.0 14.5 0.00 0.00 0.00 6 1021.8
20260508122111 14 233 9.7 17.7 0.00 0.00 0.00 6 1021.7
20260508121111 14 247 4.8 12.9 0.00 0.00 0.00 6 1021.8
20260508120110 14 250 6.4 16.1 0.00 0.00 0.00 6 1021.8
20260508115110 13 249 16.1 19.3 0.00 0.00 0.00 6 1021.7
20260508114110 14 243 8.0 17.7 0.00 0.00 0.00 6 1021.7
20260508113110 14 250 17.7 19.3 0.00 0.00 0.00 6 1021.7
20260508112110 14 256 8.0 17.7 0.00 0.00 0.00 6 1021.6
20260508111110 14 235 6.4 11.3 0.00 0.00 0.00 6 1021.5
20260508110110 14 239 9.7 17.7 0.00 0.00 0.00 6 1021.3
20260508105110 14 240 17.7 19.3 0.00 0.00 0.00 6 1021.3
20260508104110 14 261 4.8 16.1 0.00 0.00 0.00 6 1021.1
20260508103110 14 240 14.5 19.3 0.00 0.00 0.00 6 1021.1
20260508102110 14 256 6.4 11.3 0.00 0.00 0.00 6 1021.1
20260508101110 15 247 6.4 17.7 0.00 0.00 0.00 6 1020.9
20260508100110 15 205 1.6 12.9 0.00 0.00 0.00 6 1020.8
20260508095110 15 236 3.2 16.1 0.00 0.00 0.00 6 1020.8
20260508094110 15 249 12.9 17.7 0.00 0.00 0.00 6 1020.6
20260508093110 15 249 9.7 20.9 0.00 0.00 0.00 6 1020.4
20260508092110 15 233 8.0 17.7 0.00 0.00 0.00 6 1020.2
20260508091110 15 232 17.7 22.5 0.00 0.00 0.00 6 1020.2